DAL13 KDFW-KEWR

Flight info

Callsign DAL13
Flight time 2h 50m
Altitude 37000
Route KDFW/36L N0451F370 FORCK3 FORCK DCT ELD DCT IZAAC Q30 VLKNN DCT THRSR DCT TWOUP Q22 UMBRE DCT QUART PHLBO4 KEWR/29
Aircraft A230/M-SDE3FGHIRWY/LB1

Departure

Time 2026-05-06 07:05
Airport Dallas Fort Worth International Airport (KDFW)

Arrival

Time 2026-05-06 09:56
Airport Newark Liberty International Airport (KEWR)
Time Latitude Longitude Altitude Speed Heading
2026-05-06 06:17 32.90333 -97.03542 590 ft 0 kts 302°
2026-05-06 06:45 32.90329 -97.03533 589 ft 2 kts 292°
2026-05-06 06:45 32.90325 -97.03516 589 ft 2 kts 276°
2026-05-06 06:46 32.90326 -97.03499 589 ft 2 kts 259°
2026-05-06 06:46 32.90330 -97.03482 588 ft 2 kts 243°
2026-05-06 06:46 32.90338 -97.03466 588 ft 2 kts 227°
2026-05-06 06:46 32.90350 -97.03455 588 ft 2 kts 211°
2026-05-06 06:47 32.90363 -97.03448 588 ft 2 kts 203°
2026-05-06 06:47 32.90376 -97.03440 588 ft 2 kts 206°
2026-05-06 06:47 32.90390 -97.03432 588 ft 2 kts 205°
2026-05-06 06:47 32.90402 -97.03426 587 ft 0 kts 205°
2026-05-06 06:50 32.90401 -97.03426 587 ft 0 kts 205°
2026-05-06 06:50 32.90395 -97.03429 588 ft 1 kts 205°
2026-05-06 06:50 32.90384 -97.03434 588 ft 2 kts 200°
2026-05-06 06:50 32.90367 -97.03442 588 ft 3 kts 200°
2026-05-06 06:51 32.90345 -97.03451 588 ft 3 kts 200°
2026-05-06 06:51 32.90315 -97.03464 588 ft 5 kts 200°
2026-05-06 06:51 32.90273 -97.03485 587 ft 7 kts 204°
2026-05-06 06:51 32.90221 -97.03514 587 ft 9 kts 206°
2026-05-06 06:52 32.90156 -97.03537 586 ft 10 kts 161°
2026-05-06 06:52 32.90132 -97.03459 585 ft 11 kts 91°
2026-05-06 06:52 32.90131 -97.03359 583 ft 10 kts 90°
2026-05-06 06:52 32.90100 -97.03307 581 ft 9 kts 178°
2026-05-06 06:53 32.90028 -97.03316 582 ft 10 kts 181°
2026-05-06 06:53 32.89949 -97.03316 581 ft 12 kts 180°
2026-05-06 06:53 32.89855 -97.03316 579 ft 14 kts 180°
2026-05-06 06:53 32.89752 -97.03317 579 ft 15 kts 180°
2026-05-06 06:54 32.89644 -97.03318 579 ft 15 kts 180°
2026-05-06 06:54 32.89528 -97.03318 576 ft 17 kts 180°
2026-05-06 06:54 32.89402 -97.03320 576 ft 18 kts 180°
2026-05-06 06:54 32.89278 -97.03320 576 ft 18 kts 180°
2026-05-06 06:55 32.89151 -97.03320 576 ft 18 kts 180°
2026-05-06 06:55 32.89021 -97.03321 573 ft 19 kts 180°
2026-05-06 06:55 32.88882 -97.03322 573 ft 19 kts 180°
2026-05-06 06:55 32.88747 -97.03323 573 ft 19 kts 180°
2026-05-06 06:56 32.88620 -97.03323 573 ft 16 kts 180°
2026-05-06 06:56 32.88529 -97.03326 573 ft 11 kts 195°
2026-05-06 06:56 32.88497 -97.03404 573 ft 12 kts 272°
2026-05-06 06:56 32.88500 -97.03506 573 ft 12 kts 271°
2026-05-06 06:57 32.88500 -97.03619 570 ft 14 kts 270°
2026-05-06 06:57 32.88501 -97.03751 568 ft 16 kts 270°
2026-05-06 06:57 32.88501 -97.03895 566 ft 17 kts 270°
2026-05-06 06:57 32.88501 -97.04042 566 ft 17 kts 270°
2026-05-06 06:58 32.88502 -97.04185 567 ft 17 kts 270°
2026-05-06 06:58 32.88502 -97.04319 569 ft 15 kts 270°
2026-05-06 06:58 32.88503 -97.04442 572 ft 13 kts 271°
2026-05-06 06:58 32.88504 -97.04550 574 ft 12 kts 270°
2026-05-06 06:59 32.88504 -97.04649 576 ft 11 kts 270°
2026-05-06 06:59 32.88504 -97.04742 576 ft 11 kts 270°
2026-05-06 06:59 32.88504 -97.04836 576 ft 11 kts 267°
2026-05-06 06:59 32.88451 -97.04894 575 ft 12 kts 182°
2026-05-06 07:00 32.88354 -97.04895 573 ft 14 kts 180°
2026-05-06 07:00 32.88247 -97.04895 573 ft 15 kts 180°
2026-05-06 07:00 32.88133 -97.04896 571 ft 17 kts 180°
2026-05-06 07:00 32.88009 -97.04896 570 ft 17 kts 181°
2026-05-06 07:01 32.87931 -97.04904 570 ft 9 kts 212°
2026-05-06 07:01 32.87911 -97.04987 568 ft 12 kts 269°
2026-05-06 07:01 32.87911 -97.05096 566 ft 14 kts 270°
2026-05-06 07:01 32.87912 -97.05223 564 ft 15 kts 270°
2026-05-06 07:02 32.87912 -97.05324 565 ft 8 kts 270°
2026-05-06 07:02 32.87912 -97.05352 565 ft 0 kts 269°
2026-05-06 07:03 32.87912 -97.05353 565 ft 0 kts 269°
2026-05-06 07:03 32.87912 -97.05368 565 ft 6 kts 270°
2026-05-06 07:04 32.87912 -97.05437 566 ft 8 kts 270°
2026-05-06 07:04 32.87936 -97.05483 567 ft 6 kts 346°
2026-05-06 07:04 32.87974 -97.05484 569 ft 4 kts
2026-05-06 07:04 32.88065 -97.05482 570 ft 39 kts
2026-05-06 07:05 32.88561 -97.05479 581 ft 101 kts
2026-05-06 07:05 32.89441 -97.05473 602 ft 151 kts
2026-05-06 07:05 32.90583 -97.05470 1017 ft 161 kts 359°
2026-05-06 07:05 32.91637 -97.05525 1673 ft 154 kts
2026-05-06 07:06 32.92730 -97.05415 2171 ft 161 kts
2026-05-06 07:06 32.93819 -97.05119 2673 ft 165 kts 21°
2026-05-06 07:06 32.94900 -97.04501 3037 ft 177 kts 27°
2026-05-06 07:06 32.95996 -97.03768 3430 ft 188 kts 31°
2026-05-06 07:07 32.97130 -97.02922 3867 ft 198 kts 29°
2026-05-06 07:07 32.98363 -97.02073 4306 ft 209 kts 28°
2026-05-06 07:07 32.99662 -97.01187 4680 ft 223 kts 27°
2026-05-06 07:07 33.01044 -97.00166 4921 ft 248 kts 44°
2026-05-06 07:08 33.01900 -96.98339 5343 ft 264 kts 81°
2026-05-06 07:08 33.01868 -96.96149 5842 ft 275 kts 100°
2026-05-06 07:08 33.01591 -96.93810 6309 ft 291 kts 100°
2026-05-06 07:08 33.01329 -96.91399 6965 ft 299 kts 99°
2026-05-06 07:09 33.01109 -96.88927 7656 ft 306 kts 97°
2026-05-06 07:09 33.00791 -96.86417 8311 ft 311 kts 107°
2026-05-06 07:09 33.00097 -96.83999 8971 ft 315 kts 117°
2026-05-06 07:09 32.99170 -96.81619 9588 ft 322 kts 119°
2026-05-06 07:10 32.98179 -96.79208 10215 ft 328 kts 120°
2026-05-06 07:10 32.97152 -96.76714 10665 ft 342 kts 120°
2026-05-06 07:10 32.96095 -96.74130 10973 ft 360 kts 120°
2026-05-06 07:10 32.94973 -96.71360 11267 ft 377 kts 120°
2026-05-06 07:11 32.93821 -96.68499 11540 ft 393 kts 120°
2026-05-06 07:11 32.92624 -96.65524 11820 ft 408 kts 120°
2026-05-06 07:11 32.91386 -96.62431 12330 ft 414 kts 120°
2026-05-06 07:11 32.90156 -96.59349 12923 ft 417 kts 120°
2026-05-06 07:12 32.88912 -96.56239 13523 ft 421 kts 121°
2026-05-06 07:12 32.87635 -96.53058 14062 ft 424 kts 121°
2026-05-06 07:12 32.86366 -96.49905 14624 ft 427 kts 121°
2026-05-06 07:12 32.85075 -96.46703 15163 ft 431 kts 121°
2026-05-06 07:13 32.83778 -96.43488 15672 ft 435 kts 121°
2026-05-06 07:13 32.82467 -96.40240 16210 ft 439 kts 121°
2026-05-06 07:13 32.81163 -96.36988 16696 ft 444 kts 119°
2026-05-06 07:13 32.80186 -96.33428 17184 ft 457 kts 105°
2026-05-06 07:14 32.79939 -96.29676 17651 ft 467 kts 89°
2026-05-06 07:14 32.80272 -96.25790 18205 ft 469 kts 84°
2026-05-06 07:14 32.80729 -96.22006 18794 ft 470 kts 83°
2026-05-06 07:14 32.81203 -96.18131 19279 ft 474 kts 83°
2026-05-06 07:15 32.81654 -96.14231 19732 ft 478 kts 84°
2026-05-06 07:15 32.82082 -96.10307 20174 ft 482 kts 84°
2026-05-06 07:15 32.82500 -96.06358 20611 ft 486 kts 84°
2026-05-06 07:15 32.82908 -96.02407 21034 ft 490 kts 84°
2026-05-06 07:16 32.83322 -95.98363 21459 ft 493 kts 84°
2026-05-06 07:16 32.83733 -95.94323 21866 ft 497 kts 84°
2026-05-06 07:16 32.84149 -95.90233 22304 ft 499 kts 84°
2026-05-06 07:16 32.84564 -95.86151 22824 ft 500 kts 84°
2026-05-06 07:17 32.84980 -95.82053 23232 ft 503 kts 84°
2026-05-06 07:17 32.85396 -95.77911 23578 ft 507 kts 84°
2026-05-06 07:17 32.85813 -95.73760 23917 ft 511 kts 84°
2026-05-06 07:17 32.86235 -95.69561 24276 ft 514 kts 84°
2026-05-06 07:18 32.86655 -95.65334 24628 ft 518 kts 84°
2026-05-06 07:18 32.87077 -95.61063 24944 ft 522 kts 84°
2026-05-06 07:18 32.87501 -95.56796 25389 ft 523 kts 84°
2026-05-06 07:18 32.87923 -95.52535 25809 ft 524 kts 84°
2026-05-06 07:19 32.88350 -95.48192 26144 ft 527 kts 84°
2026-05-06 07:19 32.88773 -95.43881 26437 ft 531 kts 84°
2026-05-06 07:19 32.89198 -95.39530 26735 ft 535 kts 84°
2026-05-06 07:19 32.89627 -95.35117 27016 ft 539 kts 84°
2026-05-06 07:20 32.90064 -95.30653 27286 ft 542 kts 85°
2026-05-06 07:20 32.90489 -95.26223 27563 ft 545 kts 85°
2026-05-06 07:20 32.90917 -95.21755 27847 ft 547 kts 85°
2026-05-06 07:20 32.91344 -95.17291 28195 ft 548 kts 85°
2026-05-06 07:21 32.91777 -95.12767 28578 ft 547 kts 85°
2026-05-06 07:21 32.92202 -95.08297 28920 ft 548 kts 85°
2026-05-06 07:21 32.92630 -95.03783 29264 ft 549 kts 84°
2026-05-06 07:21 32.93053 -94.99308 29600 ft 549 kts 85°
2026-05-06 07:22 32.93480 -94.94791 29976 ft 549 kts 85°
2026-05-06 07:22 32.93901 -94.90318 30378 ft 548 kts 85°
2026-05-06 07:22 32.94315 -94.85847 30716 ft 548 kts 85°
2026-05-06 07:22 32.94735 -94.81334 31036 ft 549 kts 85°
2026-05-06 07:23 32.95151 -94.76857 31377 ft 549 kts 85°
2026-05-06 07:23 32.95562 -94.72368 31713 ft 548 kts 85°
2026-05-06 07:23 32.95977 -94.67810 32010 ft 549 kts 85°
2026-05-06 07:23 32.96388 -94.63349 32299 ft 550 kts 85°
2026-05-06 07:24 32.96801 -94.58813 32604 ft 550 kts 85°
2026-05-06 07:24 32.97201 -94.54341 32889 ft 550 kts 85°
2026-05-06 07:24 32.97611 -94.49824 33165 ft 550 kts 85°
2026-05-06 07:24 32.98019 -94.45282 33472 ft 551 kts 85°
2026-05-06 07:25 32.98423 -94.40750 33800 ft 550 kts 85°
2026-05-06 07:25 32.98821 -94.36286 34138 ft 549 kts 84°
2026-05-06 07:25 32.99224 -94.31759 34464 ft 547 kts 85°
2026-05-06 07:25 32.99671 -94.27247 34732 ft 547 kts 82°
2026-05-06 07:26 33.00314 -94.22854 34995 ft 546 kts 78°
2026-05-06 07:26 33.01075 -94.18434 35260 ft 545 kts 77°
2026-05-06 07:26 33.01874 -94.14022 35480 ft 545 kts 77°
2026-05-06 07:26 33.02669 -94.09640 35689 ft 545 kts 77°
2026-05-06 07:27 33.03461 -94.05212 35914 ft 544 kts 77°
2026-05-06 07:27 33.04236 -94.00838 36114 ft 544 kts 77°
2026-05-06 07:27 33.04998 -93.96473 36296 ft 544 kts 77°
2026-05-06 07:27 33.05768 -93.92030 36433 ft 545 kts 77°
2026-05-06 07:28 33.06534 -93.87624 36565 ft 546 kts 77°
2026-05-06 07:28 33.07301 -93.83219 36696 ft 546 kts 77°
2026-05-06 07:28 33.08827 -93.74362 36824 ft 547 kts 77°
2026-05-06 07:29 33.10355 -93.65485 36827 ft 548 kts 77°
2026-05-06 07:29 33.11866 -93.56641 36828 ft 548 kts 77°
2026-05-06 07:30 33.13383 -93.47752 36829 ft 547 kts 77°
2026-05-06 07:30 33.14888 -93.38882 36830 ft 548 kts 77°
2026-05-06 07:31 33.16384 -93.30013 36829 ft 547 kts 78°
2026-05-06 07:31 33.17878 -93.21104 36836 ft 548 kts 78°
2026-05-06 07:32 33.19362 -93.12234 36839 ft 547 kts 78°
2026-05-06 07:32 33.20830 -93.03404 36840 ft 547 kts 77°
2026-05-06 07:33 33.22308 -92.94486 36841 ft 548 kts 77°
2026-05-06 07:33 33.23771 -92.85622 36848 ft 547 kts 78°
2026-05-06 07:34 33.25235 -92.76680 36842 ft 548 kts 78°
2026-05-06 07:34 33.26305 -92.67715 36843 ft 548 kts 83°
2026-05-06 07:35 33.27110 -92.58727 36840 ft 548 kts 84°
2026-05-06 07:35 33.27918 -92.49688 36836 ft 548 kts 83°
2026-05-06 07:36 33.28739 -92.40680 36833 ft 548 kts 83°
2026-05-06 07:36 33.29565 -92.31635 36831 ft 547 kts 84°
2026-05-06 07:37 33.30380 -92.22620 36832 ft 548 kts 83°
2026-05-06 07:37 33.31188 -92.13622 36834 ft 547 kts 83°
2026-05-06 07:38 33.31987 -92.04614 36838 ft 548 kts 83°
2026-05-06 07:38 33.32788 -91.95549 36841 ft 547 kts 83°
2026-05-06 07:39 33.33577 -91.86547 36842 ft 547 kts 83°
2026-05-06 07:39 33.34355 -91.77534 36844 ft 546 kts 83°
2026-05-06 07:40 33.35128 -91.68550 36847 ft 546 kts 83°
2026-05-06 07:40 33.35895 -91.59557 36847 ft 546 kts 83°
2026-05-06 07:41 33.36659 -91.50545 36849 ft 545 kts 83°
2026-05-06 07:41 33.37413 -91.41543 36847 ft 545 kts 83°
2026-05-06 07:42 33.38163 -91.32553 36840 ft 545 kts 84°
2026-05-06 07:42 33.38901 -91.23539 36841 ft 544 kts 83°
2026-05-06 07:43 33.39629 -91.14594 36848 ft 544 kts 84°
2026-05-06 07:43 33.40360 -91.05566 36845 ft 543 kts 84°
2026-05-06 07:44 33.41076 -90.96639 36843 ft 544 kts 83°
2026-05-06 07:44 33.41790 -90.87650 36843 ft 543 kts 83°
2026-05-06 07:45 33.42494 -90.78683 36844 ft 543 kts 83°
2026-05-06 07:45 33.43193 -90.69698 36849 ft 543 kts 83°
2026-05-06 07:46 33.43885 -90.60737 36846 ft 543 kts 83°
2026-05-06 07:46 33.44570 -90.51749 36851 ft 542 kts 83°
2026-05-06 07:47 33.45252 -90.42800 36843 ft 543 kts 83°
2026-05-06 07:47 33.45919 -90.33865 36849 ft 542 kts 83°
2026-05-06 07:48 33.46468 -90.24882 36855 ft 542 kts 88°
2026-05-06 07:48 33.46640 -90.15895 36864 ft 543 kts 88°
2026-05-06 07:49 33.46769 -90.06831 36865 ft 543 kts 88°
2026-05-06 07:49 33.46917 -89.97833 36870 ft 543 kts 88°
2026-05-06 07:50 33.47066 -89.88848 36877 ft 542 kts 88°
2026-05-06 07:50 33.47209 -89.79854 36876 ft 542 kts 88°
2026-05-06 07:51 33.47347 -89.70869 36875 ft 543 kts 88°
2026-05-06 07:51 33.47476 -89.61881 36877 ft 542 kts 88°
2026-05-06 07:52 33.47601 -89.52859 36878 ft 542 kts 88°
2026-05-06 07:52 33.47716 -89.43871 36881 ft 542 kts 88°
2026-05-06 07:53 33.47825 -89.34883 36886 ft 541 kts 88°
2026-05-06 07:53 33.47931 -89.25924 36883 ft 541 kts 89°
2026-05-06 07:54 33.48026 -89.16917 36881 ft 541 kts 88°
2026-05-06 07:54 33.48117 -89.07932 36884 ft 541 kts 88°
2026-05-06 07:55 33.48203 -88.98985 36888 ft 541 kts 88°
2026-05-06 07:55 33.48278 -88.90000 36890 ft 541 kts 88°
2026-05-06 07:56 33.48349 -88.81032 36894 ft 541 kts 88°
2026-05-06 07:56 33.48413 -88.72050 36889 ft 540 kts 88°
2026-05-06 07:57 33.48475 -88.63103 36892 ft 541 kts 88°
2026-05-06 07:57 33.48539 -88.54082 36887 ft 540 kts 86°
2026-05-06 07:58 33.49193 -88.45219 36896 ft 537 kts 79°
2026-05-06 07:58 33.50295 -88.36359 36897 ft 537 kts 77°
2026-05-06 07:59 33.51390 -88.27551 36886 ft 537 kts 78°
2026-05-06 07:59 33.52441 -88.18778 36894 ft 536 kts 78°
2026-05-06 08:00 33.53492 -88.09908 36901 ft 536 kts 78°
2026-05-06 08:00 33.54519 -88.01148 36904 ft 537 kts 79°
2026-05-06 08:01 33.55551 -87.92287 36916 ft 537 kts 78°
2026-05-06 08:01 33.56570 -87.83466 36915 ft 536 kts 78°
2026-05-06 08:02 33.57585 -87.74667 36918 ft 536 kts 78°
2026-05-06 08:02 33.58597 -87.65818 36921 ft 536 kts 78°
2026-05-06 08:03 33.59602 -87.56990 36919 ft 536 kts 78°
2026-05-06 08:03 33.60591 -87.48221 36925 ft 535 kts 78°
2026-05-06 08:04 33.61584 -87.39371 36924 ft 535 kts 78°
2026-05-06 08:04 33.62568 -87.30547 36917 ft 535 kts 79°
2026-05-06 08:05 33.63541 -87.21744 36918 ft 536 kts 79°
2026-05-06 08:05 33.64513 -87.12891 36918 ft 535 kts 79°
2026-05-06 08:06 33.65481 -87.04060 36927 ft 535 kts 79°
2026-05-06 08:06 33.66428 -86.95280 36933 ft 534 kts 79°
2026-05-06 08:07 33.67029 -86.86419 36938 ft 537 kts 86°
2026-05-06 08:07 33.66976 -86.77446 36945 ft 538 kts 89°
2026-05-06 08:08 33.66856 -86.68477 36946 ft 538 kts 88°
2026-05-06 08:08 33.66757 -86.59543 36946 ft 537 kts 88°
2026-05-06 08:09 33.66674 -86.50602 36944 ft 538 kts 88°
2026-05-06 08:09 33.66582 -86.41656 36944 ft 538 kts 88°
2026-05-06 08:10 33.66485 -86.32716 36938 ft 538 kts 88°
2026-05-06 08:10 33.66381 -86.23780 36944 ft 538 kts 88°
2026-05-06 08:11 33.66271 -86.14818 36945 ft 538 kts 88°
2026-05-06 08:11 33.66153 -86.05921 36950 ft 538 kts 88°
2026-05-06 08:12 33.66029 -85.96975 36947 ft 538 kts 88°
2026-05-06 08:12 33.65900 -85.88007 36952 ft 538 kts 88°
2026-05-06 08:13 33.65765 -85.79092 36954 ft 537 kts 88°
2026-05-06 08:13 33.65621 -85.70143 36961 ft 536 kts 88°
2026-05-06 08:14 33.65474 -85.61253 36954 ft 536 kts 88°
2026-05-06 08:14 33.65319 -85.52360 36953 ft 536 kts 88°
2026-05-06 08:15 33.65158 -85.43422 36953 ft 536 kts 88°
2026-05-06 08:15 33.64988 -85.34557 36963 ft 535 kts 89°
2026-05-06 08:16 33.64817 -85.25665 36968 ft 535 kts 89°
2026-05-06 08:16 33.64634 -85.16760 36961 ft 535 kts 89°
2026-05-06 08:17 33.64447 -85.07848 36967 ft 534 kts 88°
2026-05-06 08:17 33.64255 -84.98994 36974 ft 533 kts 89°
2026-05-06 08:18 33.64061 -84.90163 36978 ft 533 kts 88°
2026-05-06 08:18 33.63855 -84.81291 36980 ft 533 kts 89°
2026-05-06 08:19 33.63646 -84.72403 36983 ft 534 kts 89°
2026-05-06 08:19 33.63426 -84.63561 36986 ft 533 kts 88°
2026-05-06 08:20 33.63202 -84.54705 36988 ft 532 kts 88°
2026-05-06 08:20 33.63632 -84.45896 36986 ft 525 kts 75°
2026-05-06 08:21 33.65506 -84.37625 36989 ft 510 kts 59°
2026-05-06 08:21 33.68568 -84.30098 36991 ft 503 kts 52°
2026-05-06 08:22 33.71901 -84.22724 36991 ft 503 kts 52°
2026-05-06 08:22 33.75158 -84.15345 36992 ft 504 kts 53°
2026-05-06 08:23 33.78386 -84.07900 36982 ft 504 kts 53°
2026-05-06 08:23 33.81613 -84.00426 36984 ft 504 kts 53°
2026-05-06 08:24 33.84827 -83.92971 36992 ft 504 kts 53°
2026-05-06 08:24 33.88046 -83.85501 36996 ft 500 kts 52°
2026-05-06 08:25 33.91631 -83.78497 36994 ft 489 kts 44°
2026-05-06 08:25 33.95662 -83.71939 36993 ft 489 kts 43°
2026-05-06 08:26 33.99739 -83.65372 37001 ft 487 kts 42°
2026-05-06 08:26 34.03747 -83.58875 36996 ft 488 kts 42°
2026-05-06 08:27 34.07771 -83.52321 36996 ft 486 kts 42°
2026-05-06 08:27 34.11783 -83.45762 36996 ft 487 kts 43°
2026-05-06 08:28 34.15796 -83.39184 36998 ft 485 kts 43°
2026-05-06 08:28 34.19789 -83.32630 36985 ft 486 kts 43°
2026-05-06 08:29 34.23773 -83.26082 36982 ft 486 kts 43°
2026-05-06 08:29 34.27778 -83.19484 36976 ft 486 kts 43°
2026-05-06 08:30 34.31764 -83.12907 36985 ft 485 kts 43°
2026-05-06 08:30 34.35746 -83.06325 36985 ft 486 kts 43°
2026-05-06 08:31 34.39739 -82.99714 36984 ft 487 kts 42°
2026-05-06 08:31 34.43704 -82.93136 36995 ft 485 kts 42°
2026-05-06 08:32 34.47661 -82.86556 36991 ft 485 kts 43°
2026-05-06 08:32 34.51643 -82.79931 37004 ft 488 kts 43°
2026-05-06 08:33 34.55605 -82.73315 37000 ft 485 kts 42°
2026-05-06 08:33 34.59546 -82.66729 36999 ft 485 kts 43°
2026-05-06 08:34 34.65467 -82.56815 36996 ft 487 kts 42°
2026-05-06 08:35 34.69405 -82.50195 36998 ft 484 kts 42°
2026-05-06 08:35 34.73339 -82.43577 36997 ft 485 kts 42°
2026-05-06 08:36 34.77275 -82.36945 37003 ft 484 kts 42°
2026-05-06 08:36 34.81202 -82.30315 36999 ft 485 kts 42°
2026-05-06 08:37 34.85132 -82.23665 36996 ft 486 kts 43°
2026-05-06 08:37 34.89050 -82.17025 36992 ft 485 kts 43°
2026-05-06 08:38 34.92978 -82.10349 36988 ft 485 kts 43°
2026-05-06 08:38 34.96882 -82.03703 36987 ft 484 kts 43°
2026-05-06 08:39 35.00803 -81.97018 36993 ft 484 kts 43°
2026-05-06 08:39 35.04715 -81.90401 36978 ft 483 kts 41°
2026-05-06 08:40 35.08757 -81.83901 36983 ft 479 kts 40°
2026-05-06 08:40 35.12772 -81.77477 36984 ft 481 kts 40°
2026-05-06 08:41 35.16814 -81.70963 36992 ft 482 kts 40°
2026-05-06 08:41 35.20827 -81.64455 36990 ft 481 kts 40°
2026-05-06 08:42 35.24851 -81.57934 37012 ft 483 kts 41°
2026-05-06 08:42 35.28898 -81.51358 36994 ft 484 kts 41°
2026-05-06 08:43 35.32901 -81.44826 37001 ft 481 kts 41°
2026-05-06 08:43 35.36916 -81.38277 36992 ft 482 kts 40°
2026-05-06 08:44 35.40922 -81.31728 36982 ft 481 kts 41°
2026-05-06 08:44 35.44943 -81.25143 36985 ft 481 kts 41°
2026-05-06 08:45 35.48936 -81.18583 36995 ft 481 kts 41°
2026-05-06 08:45 35.52927 -81.12026 37002 ft 480 kts 41°
2026-05-06 08:46 35.56910 -81.05461 36988 ft 481 kts 41°
2026-05-06 08:46 35.60910 -80.98865 36986 ft 482 kts 41°
2026-05-06 08:47 35.64891 -80.92287 36979 ft 481 kts 41°
2026-05-06 08:47 35.68881 -80.85667 36991 ft 480 kts 41°
2026-05-06 08:48 35.72854 -80.79081 36984 ft 480 kts 41°
2026-05-06 08:48 35.76820 -80.72480 36982 ft 479 kts 41°
2026-05-06 08:49 35.80759 -80.65923 36982 ft 480 kts 41°
2026-05-06 08:49 35.84738 -80.59280 36975 ft 482 kts 41°
2026-05-06 08:50 35.88694 -80.52657 36982 ft 480 kts 41°
2026-05-06 08:50 35.92614 -80.46092 36980 ft 480 kts 41°
2026-05-06 08:51 35.96571 -80.39445 36982 ft 480 kts 41°
2026-05-06 08:51 36.00523 -80.32810 36979 ft 482 kts 42°
2026-05-06 08:52 36.04501 -80.26132 36976 ft 480 kts 42°
2026-05-06 08:52 36.08424 -80.19532 36973 ft 480 kts 42°
2026-05-06 08:53 36.12389 -80.12851 36981 ft 482 kts 42°
2026-05-06 08:53 36.16327 -80.06188 36986 ft 481 kts 42°
2026-05-06 08:54 36.20258 -79.99543 36987 ft 482 kts 42°
2026-05-06 08:54 36.24216 -79.92825 36986 ft 479 kts 42°
2026-05-06 08:55 36.28114 -79.86209 36990 ft 479 kts 42°
2026-05-06 08:55 36.32033 -79.79535 36990 ft 479 kts 42°
2026-05-06 08:56 36.35912 -79.72910 36982 ft 476 kts 42°
2026-05-06 08:56 36.39794 -79.66286 36977 ft 476 kts 42°
2026-05-06 08:57 36.43688 -79.59615 36970 ft 476 kts 42°
2026-05-06 08:57 36.47551 -79.52992 36963 ft 474 kts 42°
2026-05-06 08:58 36.51423 -79.46335 36969 ft 477 kts 42°
2026-05-06 08:58 36.55267 -79.39706 36967 ft 475 kts 42°
2026-05-06 08:59 36.59135 -79.33038 36964 ft 473 kts 43°
2026-05-06 08:59 36.62940 -79.26455 36963 ft 474 kts 43°
2026-05-06 09:00 36.66806 -79.19762 36959 ft 476 kts 43°
2026-05-06 09:00 36.70663 -79.13062 36961 ft 475 kts 43°
2026-05-06 09:01 36.74485 -79.06403 36951 ft 473 kts 43°
2026-05-06 09:01 36.78301 -78.99756 36955 ft 472 kts 43°
2026-05-06 09:02 36.82103 -78.93126 36961 ft 473 kts 43°
2026-05-06 09:02 36.85900 -78.86445 36957 ft 473 kts 43°
2026-05-06 09:03 36.89697 -78.79733 36961 ft 473 kts 44°
2026-05-06 09:03 36.93472 -78.73054 36958 ft 473 kts 44°
2026-05-06 09:04 36.97277 -78.66313 36960 ft 477 kts 44°
2026-05-06 09:04 37.01074 -78.59566 36968 ft 474 kts 44°
2026-05-06 09:05 37.04857 -78.52829 36965 ft 472 kts 44°
2026-05-06 09:05 37.08644 -78.46082 36967 ft 475 kts 44°
2026-05-06 09:06 37.12441 -78.39291 36966 ft 475 kts 44°
2026-05-06 09:06 37.16214 -78.32529 36959 ft 475 kts 45°
2026-05-06 09:07 37.19951 -78.25708 36959 ft 480 kts 48°
2026-05-06 09:07 37.23307 -78.18431 36955 ft 483 kts 51°
2026-05-06 09:08 37.26564 -78.11034 36952 ft 485 kts 52°
2026-05-06 09:08 37.29802 -78.03684 36953 ft 483 kts 52°
2026-05-06 09:09 37.33065 -77.96300 36947 ft 484 kts 52°
2026-05-06 09:09 37.36401 -77.88994 36947 ft 478 kts 46°
2026-05-06 09:10 37.40444 -77.82525 36950 ft 462 kts 35°
2026-05-06 09:10 37.45178 -77.77257 36948 ft 453 kts 24°
2026-05-06 09:11 37.50423 -77.72942 36953 ft 454 kts 21°
2026-05-06 09:11 37.55612 -77.68163 36953 ft 469 kts 27°
2026-05-06 09:12 37.60626 -77.63020 36954 ft 468 kts 28°
2026-05-06 09:12 37.65657 -77.57817 36954 ft 467 kts 28°
2026-05-06 09:13 37.70667 -77.52642 36952 ft 467 kts 27°
2026-05-06 09:13 37.75703 -77.47436 36952 ft 467 kts 28°
2026-05-06 09:14 37.80712 -77.42255 36948 ft 468 kts 28°
2026-05-06 09:14 37.85744 -77.37038 36945 ft 467 kts 27°
2026-05-06 09:15 37.90763 -77.31825 36935 ft 468 kts 28°
2026-05-06 09:15 37.95779 -77.26606 36935 ft 467 kts 28°
2026-05-06 09:16 38.00770 -77.21406 36927 ft 468 kts 28°
2026-05-06 09:16 38.05800 -77.16155 36925 ft 468 kts 28°
2026-05-06 09:17 38.10812 -77.10910 36926 ft 468 kts 28°
2026-05-06 09:17 38.15812 -77.05671 36929 ft 468 kts 28°
2026-05-06 09:18 38.20802 -77.00433 36934 ft 468 kts 28°
2026-05-06 09:18 38.25792 -76.95184 36931 ft 468 kts 28°
2026-05-06 09:19 38.30817 -76.89889 36932 ft 468 kts 28°
2026-05-06 09:19 38.35815 -76.84614 36931 ft 468 kts 28°
2026-05-06 09:20 38.40785 -76.79354 36922 ft 467 kts 28°
2026-05-06 09:20 38.45770 -76.74077 36932 ft 468 kts 28°
2026-05-06 09:21 38.50756 -76.68782 36930 ft 468 kts 28°
2026-05-06 09:21 38.55753 -76.63464 36926 ft 467 kts 28°
2026-05-06 09:22 38.60725 -76.58167 36923 ft 468 kts 29°
2026-05-06 09:22 38.65719 -76.52835 36923 ft 467 kts 29°
2026-05-06 09:23 38.70697 -76.47510 36927 ft 467 kts 29°
2026-05-06 09:23 38.75668 -76.42182 36912 ft 468 kts 29°
2026-05-06 09:24 38.80646 -76.36839 36923 ft 468 kts 29°
2026-05-06 09:24 38.85616 -76.31495 36917 ft 467 kts 30°
2026-05-06 09:25 38.90585 -76.26138 36929 ft 467 kts 30°
2026-05-06 09:25 38.95520 -76.20809 36920 ft 467 kts 30°
2026-05-06 09:26 39.00477 -76.15447 36919 ft 467 kts 30°
2026-05-06 09:26 39.05432 -76.10079 36916 ft 467 kts 30°
2026-05-06 09:27 39.10385 -76.04696 36919 ft 466 kts 30°
2026-05-06 09:27 39.12859 -76.02009 36695 ft 467 kts 30°
2026-05-06 09:27 39.15308 -75.99285 36397 ft 466 kts 33°
2026-05-06 09:27 39.17659 -75.96405 36105 ft 465 kts 34°
2026-05-06 09:28 39.19942 -75.93542 35824 ft 464 kts 34°
2026-05-06 09:28 39.22243 -75.90639 35542 ft 464 kts 34°
2026-05-06 09:28 39.24561 -75.87724 35260 ft 465 kts 34°
2026-05-06 09:28 39.26907 -75.84946 34979 ft 460 kts 31°
2026-05-06 09:29 39.29374 -75.82333 34744 ft 456 kts 29°
2026-05-06 09:29 39.31898 -75.79889 34221 ft 449 kts 25°
2026-05-06 09:29 39.34481 -75.77626 33424 ft 451 kts 24°
2026-05-06 09:29 39.37118 -75.75561 32646 ft 450 kts 20°
2026-05-06 09:30 39.39861 -75.73641 31859 ft 452 kts 19°
2026-05-06 09:30 39.42685 -75.71751 31023 ft 456 kts 19°
2026-05-06 09:30 39.45530 -75.69905 30132 ft 462 kts 19°
2026-05-06 09:30 39.48413 -75.68086 29243 ft 466 kts 18°
2026-05-06 09:31 39.51331 -75.66330 28370 ft 468 kts 17°
2026-05-06 09:31 39.54362 -75.64817 27529 ft 464 kts 11°
2026-05-06 09:31 39.57406 -75.63572 26987 ft 457 kts
2026-05-06 09:31 39.60438 -75.62391 26744 ft 451 kts
2026-05-06 09:32 39.63422 -75.61086 26607 ft 461 kts 18°
2026-05-06 09:32 39.66304 -75.59218 26483 ft 465 kts 22°
2026-05-06 09:32 39.69110 -75.57221 26355 ft 464 kts 23°
2026-05-06 09:32 39.71916 -75.55108 26221 ft 465 kts 25°
2026-05-06 09:33 39.74649 -75.52898 26034 ft 468 kts 31°
2026-05-06 09:33 39.77153 -75.50128 25731 ft 470 kts 39°
2026-05-06 09:33 39.79464 -75.47155 24908 ft 475 kts 41°
2026-05-06 09:33 39.81811 -75.44089 23970 ft 480 kts 40°
2026-05-06 09:34 39.84165 -75.41085 23327 ft 476 kts 40°
2026-05-06 09:34 39.86554 -75.38106 22782 ft 471 kts 39°
2026-05-06 09:34 39.88911 -75.35220 22246 ft 467 kts 39°
2026-05-06 09:34 39.91288 -75.32336 21660 ft 463 kts 40°
2026-05-06 09:35 39.93624 -75.29506 21096 ft 460 kts 40°
2026-05-06 09:35 39.95939 -75.26698 20524 ft 456 kts 40°
2026-05-06 09:35 39.98242 -75.23898 19951 ft 453 kts 40°
2026-05-06 09:35 40.00519 -75.21126 19391 ft 449 kts 41°
2026-05-06 09:36 40.02806 -75.18340 18818 ft 446 kts 41°
2026-05-06 09:36 40.05038 -75.15616 18279 ft 442 kts 41°
2026-05-06 09:36 40.07284 -75.12873 17738 ft 437 kts 41°
2026-05-06 09:36 40.09479 -75.10188 17194 ft 434 kts 41°
2026-05-06 09:37 40.11682 -75.07494 16613 ft 432 kts 42°
2026-05-06 09:37 40.13845 -75.04850 16033 ft 430 kts 42°
2026-05-06 09:37 40.16020 -75.02184 15456 ft 427 kts 42°
2026-05-06 09:37 40.18161 -74.99558 14905 ft 424 kts 43°
2026-05-06 09:38 40.20307 -74.96924 14326 ft 422 kts 43°
2026-05-06 09:38 40.22445 -74.94296 13750 ft 420 kts 43°
2026-05-06 09:38 40.24567 -74.91685 13200 ft 417 kts 43°
2026-05-06 09:38 40.26605 -74.89015 12694 ft 413 kts 47°
2026-05-06 09:39 40.28549 -74.86295 12175 ft 410 kts 47°
2026-05-06 09:39 40.30468 -74.83575 11633 ft 407 kts 48°
2026-05-06 09:39 40.32384 -74.80862 11139 ft 403 kts 47°
2026-05-06 09:39 40.34265 -74.78208 10668 ft 398 kts 47°
2026-05-06 09:40 40.36124 -74.75590 10367 ft 389 kts 47°
2026-05-06 09:40 40.37940 -74.73032 10044 ft 381 kts 47°
2026-05-06 09:40 40.41475 -74.68094 9427 ft 365 kts 43°
2026-05-06 09:41 40.43574 -74.66342 9109 ft 355 kts 16°
2026-05-06 09:41 40.45930 -74.65601 8826 ft 344 kts
2026-05-06 09:41 40.48268 -74.65095 8522 ft 337 kts
2026-05-06 09:41 40.50608 -74.64590 8211 ft 331 kts
2026-05-06 09:42 40.52800 -74.64071 8044 ft 321 kts
2026-05-06 09:42 40.54956 -74.63520 8009 ft 308 kts
2026-05-06 09:42 40.57045 -74.62969 8009 ft 308 kts
2026-05-06 09:42 40.59148 -74.62408 8006 ft 309 kts
2026-05-06 09:43 40.61252 -74.61846 8003 ft 309 kts
2026-05-06 09:43 40.63356 -74.61282 8003 ft 309 kts
2026-05-06 09:43 40.65458 -74.60719 8028 ft 308 kts
2026-05-06 09:43 40.67572 -74.60149 8036 ft 309 kts
2026-05-06 09:44 40.69684 -74.59582 8019 ft 308 kts
2026-05-06 09:44 40.71784 -74.59019 8002 ft 309 kts
2026-05-06 09:44 40.73889 -74.58452 8015 ft 309 kts
2026-05-06 09:44 40.75980 -74.57888 8025 ft 309 kts
2026-05-06 09:45 40.78089 -74.57320 8039 ft 310 kts
2026-05-06 09:45 40.80204 -74.56751 8069 ft 310 kts
2026-05-06 09:45 40.82327 -74.56180 8119 ft 309 kts
2026-05-06 09:45 40.84380 -74.55447 8120 ft 312 kts 22°
2026-05-06 09:46 40.86146 -74.53780 8041 ft 314 kts 49°
2026-05-06 09:46 40.87265 -74.51317 8015 ft 309 kts 75°
2026-05-06 09:46 40.87567 -74.48580 8003 ft 300 kts 98°
2026-05-06 09:46 40.87109 -74.45962 7820 ft 291 kts 120°
2026-05-06 09:47 40.85998 -74.43794 7474 ft 278 kts 142°
2026-05-06 09:47 40.84494 -74.42358 7170 ft 265 kts 161°
2026-05-06 09:47 40.82750 -74.41652 6869 ft 258 kts 177°
2026-05-06 09:47 40.80962 -74.41365 6566 ft 260 kts 175°
2026-05-06 09:48 40.79221 -74.40632 6244 ft 266 kts 158°
2026-05-06 09:48 40.77738 -74.39189 5908 ft 274 kts 138°
2026-05-06 09:48 40.76660 -74.37058 5589 ft 281 kts 122°
2026-05-06 09:48 40.75847 -74.34744 5296 ft 278 kts 120°
2026-05-06 09:49 40.75082 -74.32432 5011 ft 275 kts 120°
2026-05-06 09:49 40.74318 -74.30113 4728 ft 271 kts 120°
2026-05-06 09:49 40.73570 -74.27860 4446 ft 268 kts 121°
2026-05-06 09:49 40.72823 -74.25630 4164 ft 264 kts 121°
2026-05-06 09:50 40.72086 -74.23443 3890 ft 261 kts 121°
2026-05-06 09:50 40.71350 -74.21262 3616 ft 258 kts 122°
2026-05-06 09:50 40.70631 -74.19132 3397 ft 253 kts 122°
2026-05-06 09:50 40.69935 -74.17064 3375 ft 242 kts 122°
2026-05-06 09:51 40.69245 -74.15035 3349 ft 243 kts 122°
2026-05-06 09:51 40.68556 -74.13020 3316 ft 243 kts 122°
2026-05-06 09:51 40.67863 -74.10987 3232 ft 245 kts 122°
2026-05-06 09:51 40.67165 -74.08938 3113 ft 244 kts 122°
2026-05-06 09:52 40.66467 -74.06882 3009 ft 243 kts 122°
2026-05-06 09:52 40.65859 -74.04802 2882 ft 249 kts 106°
2026-05-06 09:52 40.66059 -74.02540 2724 ft 257 kts 65°
2026-05-06 09:52 40.67249 -74.00780 2301 ft 264 kts 26°
2026-05-06 09:53 40.68974 -74.00291 2012 ft 251 kts 345°
2026-05-06 09:53 40.70410 -74.01199 1971 ft 216 kts 303°
2026-05-06 09:53 40.70933 -74.02850 1854 ft 186 kts 261°
2026-05-06 09:53 40.70749 -74.04471 1598 ft 176 kts 252°
2026-05-06 09:54 40.70466 -74.05968 1413 ft 156 kts 250°
2026-05-06 09:54 40.70212 -74.07252 1379 ft 142 kts 249°
2026-05-06 09:54 40.70002 -74.08525 1255 ft 141 kts 255°
2026-05-06 09:54 40.69908 -74.09803 1038 ft 140 kts 261°
2026-05-06 09:55 40.69903 -74.11078 842 ft 139 kts 265°
2026-05-06 09:55 40.69923 -74.12343 622 ft 138 kts 266°
2026-05-06 09:55 40.69986 -74.13602 419 ft 138 kts 271°
2026-05-06 09:55 40.70087 -74.14857 171 ft 137 kts 269°
2026-05-06 09:56 40.70155 -74.16088 53 ft 136 kts 272°
2026-05-06 09:56 40.70223 -74.17218 16 ft 90 kts 275°
2026-05-06 09:56 40.70250 -74.17641 16 ft 4 kts 258°